Regional Weather Roundup
Issued by NWS

Home | Current Version | Previous Version | Graphics & Text | Print | Product List | Glossary On
Versions: 1 2 3 4 5 6 7 8 9 10 11 12 13 14 15 16 17 18 19 20 21 22 23 24 25 26 27 28 29 30 31 32 33 34 35 36 37 38 39 40 41 42 43 44 45 46 47 48 49 50
000
ASUS43 KOAX 280802
RWRNE

WEATHER ROUNDUP FOR NEBRASKA
NATIONAL WEATHER SERVICE OMAHA NE
200 AM CST WED JAN 28 2015

NOTES: SATELLITE DATA IS BEING USED TO AUGMENT CLOUD COVER ABOVE
       12000 FEET.
       "FAIR" INDICATES FEW OR NO CLOUDS BELOW 12,000 FEET WITH NO
       SIGNIFICANT WEATHER AND/OR OBSTRUCTIONS TO VISIBILITY.

  * THESE STATIONS DO NOT REPORT WEATHER SUCH AS RAIN...SNOW OR FOG.

NEZ001>004-019>022-054>056-280900-
NEBRASKA PANHANDLE

CITY           SKY/WX    TMP DP  RH WIND       PRES   REMARKS
SCOTTSBLUFF      N/A    N/A N/A N/A MISG      29.94F
ALLIANCE       CLEAR     34  26  72 CALM      29.92F
CHADRON        CLEAR     36  27  69 W5        29.87F WCI  32
SIDNEY         CLEAR     40  27  59 NW15      29.96S WCI  32
$$

NEZ057>060-069>072-079>082-280900-
SOUTHWEST NEBRASKA

CITY           SKY/WX    TMP DP  RH WIND       PRES   REMARKS
NORTH PLATTE   PTCLDY    28  23  81 CALM      29.87F
IMPERIAL       CLEAR     38  25  59 NW3       29.87F
MCCOOK         PTCLDY    33  26  75 NW3       29.85F
$$

NEZ005>010-023>029-035>040-094-280900-
NORTH CENTRAL NEBRASKA

CITY           SKY/WX    TMP DP  RH WIND       PRES   REMARKS
VALENTINE      CLEAR     36  30  79 SW8       29.83F WCI  30
BROKEN BOW     CLEAR     34  29  82 CALM      29.86F
ORD            CLEAR     25  24  96 CALM      29.85F
$$

NEZ041-046>049-061>064-073>077-083>087-280900-
SOUTH CENTRAL NEBRASKA

CITY           SKY/WX    TMP DP  RH WIND       PRES   REMARKS
GRAND ISLAND   CLEAR     33  28  81 S6        29.87F WCI  28
HASTINGS       CLEAR     35  29  78 SE6       29.86F WCI  30
KEARNEY *      CLEAR     34  27  75 CALM      29.86F
$$

NEZ011>018-030>034-042>045-280900-
NORTHEAST NEBRASKA

CITY           SKY/WX    TMP DP  RH WIND       PRES   REMARKS
NORFOLK        PTCLDY    37  30  75 SE7       29.89F WCI  32
COLUMBUS *     PTCLDY    37  27  65 SE6       29.92S WCI  33
TEKAMAH        CLEAR     33  29  85 SE9       29.95F WCI  25
$$

NEZ050>053-065>068-078-088>093-280900-
SOUTHEAST NEBRASKA

CITY           SKY/WX    TMP DP  RH WIND       PRES   REMARKS
LINCOLN        CLEAR     38  29  70 S8        29.93F WCI  32
OMAHA EPPLEY   PTCLDY    38  30  73 SE15      29.96F WCI  29
FALLS CITY     CLEAR     35  29  78 SE7       29.96F WCI  29
$$

NEZ044-045-051>053-067-280900-
OMAHA AREA

CITY           SKY/WX    TMP DP  RH WIND       PRES   REMARKS
OMAHA EPPLEY   PTCLDY    38  30  73 SE15      29.96F WCI  29
OFFUTT AFB     CLEAR     37  30  77 SE14      29.95F WCI  28
$$


USA.gov is the U.S. government's official web portal to all federal, state and local government web resources and services.